Weather reports worldwide

Advertisment
Stokmarknes/Skagen, Norway (1162): temperature & dewpoint: 04.07.2020 12:00:00 - 10.07.2020 12:00:00 (CEST)Stokmarknes/Skagen, Norway (1162): wind speed & gusts: 04.07.2020 12:00:00 - 10.07.2020 12:00:00 (CEST)Stokmarknes/Skagen, Norway (1162): wind direction: 04.07.2020 12:00:00 - 10.07.2020 12:00:00 (CEST)Stokmarknes/Skagen, Norway (1162): reduced air pressure: 04.07.2020 12:00:00 - 10.07.2020 12:00:00 (CEST)Stokmarknes/Skagen, Norway (1162): visibility: 04.07.2020 12:00:00 - 10.07.2020 12:00:00 (CEST)
Date & Time tt [°C] td [°C] ff [km/h] ff [kn] fx [km/h] fx [kn] dd ppp [hPa] vv [km]
10.07.2020 12:00:00 13,0 7,7 5 3 16 8 SSE 1007,8 10
10.07.2020 11:00:00 12,1 8,3 5 3 9 5 ESE 1007,9 10
10.07.2020 10:00:00 11,4 9,3 5 3 17 9 E 1007,9 10
10.07.2020 09:00:00 11,4 9,2 4 2 7 4 - 1007,9 10
10.07.2020 08:00:00 10,8 9,3 5 3 10 5 ESE 1008,1 10
10.07.2020 07:00:00 9,9 9,2 4 2 13 7 - 1008,3 10
10.07.2020 06:00:00 8,6 8,4 11 6 14 8 NE 1008,3 -
10.07.2020 05:00:00 6,8 6,8 8 4 10 5 NE 1008,6 -
10.07.2020 04:00:00 7,9 7,5 3 2 8 4 N 1008,9 -
10.07.2020 03:00:00 6,7 6,7 5 3 7 4 N 1009,0 -
10.07.2020 02:00:00 6,6 6,0 6 4 9 5 N 1008,9 -
10.07.2020 01:00:00 7,6 7,3 3 1 7 4 NNE 1008,9 -
10.07.2020 00:00:00 9,4 8,3 2 1 9 5 WSW 1008,8 -
09.07.2020 23:00:00 11,1 8,9 6 3 13 7 W 1008,9 -
09.07.2020 22:00:00 11,8 9,8 5 3 13 7 WNW 1008,8 -
09.07.2020 21:00:00 12,6 9,8 9 5 12 7 W 1008,5 -
09.07.2020 20:00:00 13,5 7,7 8 4 12 7 W 1008,4 10
09.07.2020 19:00:00 14,1 6,5 5 3 13 7 WSW 1008,5 10
09.07.2020 18:00:00 13,3 6,2 9 5 14 8 S 1008,5 10
09.07.2020 17:00:00 14,1 5,4 9 5 12 6 SE 1008,5 10
09.07.2020 16:00:00 14,0 5,5 9 5 14 7 ESE 1008,4 10
09.07.2020 15:00:00 13,5 7,1 11 6 20 11 ESE 1008,3 10
09.07.2020 14:00:00 14,7 7,7 11 6 15 8 SE 1008,1 10
09.07.2020 13:00:00 13,5 6,5 11 6 13 7 SSE 1008,0 10
09.07.2020 12:00:00 13,1 8,1 11 6 23 12 S 1008,1 10
09.07.2020 11:00:00 12,8 7,1 9 5 14 8 SE 1007,9 10
09.07.2020 10:00:00 12,5 6,7 8 4 16 9 SE 1007,7 10
09.07.2020 09:00:00 12,0 8,0 5 3 19 10 SE 1007,2 10
09.07.2020 08:00:00 12,0 8,1 16 9 21 12 SE 1006,9 10
09.07.2020 07:00:00 11,3 8,3 16 9 23 12 SE 1007,0 -
09.07.2020 06:00:00 11,0 8,0 18 10 22 12 SE 1006,9 -
09.07.2020 05:00:00 11,0 7,0 13 7 22 12 SE 1006,8 -
09.07.2020 04:00:00 10,5 7,6 6 3 10 5 ENE 1006,7 -
09.07.2020 03:00:00 9,0 7,6 7 4 12 6 NE 1006,8 -
09.07.2020 02:00:00 10,0 7,3 5 3 19 11 NNE 1006,7 -
09.07.2020 01:00:00 10,3 8,3 13 7 16 9 SE 1006,5 -
09.07.2020 00:00:00 11,1 8,1 13 7 16 9 SE 1006,3 -
08.07.2020 23:00:00 11,1 8,4 5 3 16 9 SSE 1006,1 -
08.07.2020 22:00:00 11,6 7,6 14 7 19 10 SSW 1005,8 -
08.07.2020 21:00:00 12,4 5,8 12 7 18 10 S 1005,4 -
08.07.2020 20:00:00 12,6 6,2 13 7 19 10 S 1005,3 10
08.07.2020 19:00:00 12,6 6,1 15 8 20 11 S 1005,3 10
08.07.2020 18:00:00 13,4 5,3 5 3 10 5 SSE 1005,2 10
08.07.2020 17:00:00 12,9 5,0 8 4 13 7 ESE 1005,0 10
08.07.2020 16:00:00 12,9 5,6 9 5 14 8 ESE 1004,9 10
08.07.2020 15:00:00 12,9 5,0 9 5 12 7 SE 1004,8 10
08.07.2020 14:00:00 12,9 5,3 8 4 12 6 ESE 1004,6 10
08.07.2020 13:00:00 12,9 3,9 9 5 14 8 SE 1004,3 10
08.07.2020 12:00:00 12,5 5,0 13 7 17 9 SE 1004,2 10
08.07.2020 11:00:00 12,4 5,6 11 6 22 12 SSE 1004,0 10
08.07.2020 10:00:00 11,5 5,9 13 7 20 11 ESE 1003,7 10
08.07.2020 09:00:00 10,9 7,4 16 9 23 12 SE 1003,6 10
08.07.2020 08:00:00 9,8 7,4 15 8 20 11 ESE 1003,4 10
08.07.2020 07:00:00 9,6 6,8 16 9 20 11 ESE 1003,5 -
08.07.2020 06:00:00 9,4 7,0 9 5 14 8 E 1003,5 -
08.07.2020 05:00:00 8,9 7,6 4 2 8 4 NE 1003,5 -
08.07.2020 04:00:00 8,7 7,6 6 3 8 5 NE 1003,5 -
08.07.2020 03:00:00 8,2 7,3 5 3 6 3 NNE 1003,8 -
08.07.2020 02:00:00 8,1 7,1 4 2 6 4 ENE 1003,8 -
08.07.2020 01:00:00 8,1 7,3 6 3 7 4 NE 1003,8 -
08.07.2020 00:00:00 8,5 6,8 3 2 6 3 NE 1003,7 -
07.07.2020 23:00:00 8,8 7,1 2 1 14 8 W 1003,7 -
07.07.2020 22:00:00 9,7 7,0 5 3 9 5 W 1003,5 -
07.07.2020 21:00:00 9,7 6,5 3 2 12 6 SW 1003,3 -
07.07.2020 20:00:00 9,7 6,5 8 4 14 8 W 1003,2 10
07.07.2020 19:00:00 9,3 7,2 16 9 25 13 W 1003,1 10
07.07.2020 18:00:00 10,2 5,9 16 9 26 14 WNW 1002,7 10
07.07.2020 17:00:00 10,5 6,4 16 9 25 14 W 1002,5 10
07.07.2020 16:00:00 11,0 5,6 21 11 26 14 W 1002,1 10
07.07.2020 15:00:00 11,1 6,1 18 10 29 15 W 1001,7 10
07.07.2020 14:00:00 10,5 5,7 21 11 29 16 W 1001,1 10
07.07.2020 13:00:00 10,9 7,3 13 7 27 15 W 1000,7 10
07.07.2020 12:00:00 9,8 8,3 22 12 31 17 W 1000,3 10
07.07.2020 11:00:00 10,6 8,8 22 12 29 16 W 999,5 10
07.07.2020 10:00:00 11,0 8,8 15 8 19 11 WSW 999,1 10
07.07.2020 09:00:00 10,0 8,6 13 7 19 11 WSW 998,6 10
07.07.2020 08:00:00 9,8 8,3 15 8 19 10 W 998,3 10
07.07.2020 07:00:00 9,7 8,6 14 7 16 9 W 998,0 -
07.07.2020 06:00:00 9,4 8,2 12 7 18 10 W 997,7 -
07.07.2020 05:00:00 9,3 8,1 9 5 18 10 WNW 997,4 -
07.07.2020 04:00:00 9,5 8,6 14 8 19 11 W 997,0 -
07.07.2020 03:00:00 9,7 8,1 15 8 20 11 W 996,6 -
07.07.2020 02:00:00 9,8 8,1 16 9 21 11 W 996,2 -
07.07.2020 01:00:00 10,0 7,6 5 3 23 13 NW 995,7 -
07.07.2020 00:00:00 10,3 7,8 17 9 22 12 NNW 995,2 -
06.07.2020 23:00:00 10,6 7,6 8 5 17 9 N 994,8 -
06.07.2020 22:00:00 10,3 7,2 15 8 24 13 NNW 994,4 -
06.07.2020 21:00:00 11,4 7,0 18 10 25 13 NNW 994,0 -
06.07.2020 20:00:00 12,7 7,3 15 8 23 12 N 993,5 10
06.07.2020 19:00:00 13,3 6,8 16 9 25 13 NNW 993,1 10
06.07.2020 18:00:00 13,4 6,1 16 9 24 13 N 992,7 10
06.07.2020 17:00:00 14,6 6,3 18 10 30 16 N 992,5 10
06.07.2020 16:00:00 13,9 6,2 18 10 29 16 N 992,1 10
06.07.2020 15:00:00 14,7 6,3 16 9 31 17 N 991,7 10
06.07.2020 14:00:00 14,9 6,8 16 9 27 15 N 991,4 10
06.07.2020 13:00:00 14,9 6,8 18 10 30 16 N 991,1 10
06.07.2020 12:00:00 15,3 6,6 13 7 27 14 N 991,0 10
06.07.2020 11:00:00 14,6 5,8 16 9 24 13 ENE 990,9 10
06.07.2020 10:00:00 13,9 5,4 16 9 27 14 NE 990,8 10
06.07.2020 09:00:00 13,4 6,0 18 10 29 16 NE 990,8 10
06.07.2020 08:00:00 12,6 5,8 13 7 26 14 NE 990,9 10
06.07.2020 07:00:00 11,8 5,2 15 8 22 12 NE 991,1 -
06.07.2020 06:00:00 11,1 5,1 11 6 19 10 NNE 991,3 -
06.07.2020 05:00:00 10,1 5,2 9 5 23 12 NNE 991,8 -
06.07.2020 04:00:00 9,5 4,5 14 7 22 12 NE 992,1 -
06.07.2020 03:00:00 8,6 4,2 14 8 27 14 NE 992,7 -
06.07.2020 02:00:00 8,7 4,4 16 8 27 15 NE 993,2 -
06.07.2020 01:00:00 8,8 4,2 14 8 25 13 NE 993,6 -
06.07.2020 00:00:00 8,8 4,2 14 7 22 12 NE 994,2 -
05.07.2020 23:00:00 8,9 4,4 13 7 18 10 NE 994,8 -
05.07.2020 22:00:00 10,0 5,0 11 6 20 11 NNE 995,3 10
05.07.2020 21:00:00 10,4 5,6 13 7 21 12 ENE 995,7 10
05.07.2020 20:00:00 11,4 5,9 13 7 24 13 NE 996,1 10
05.07.2020 19:00:00 11,6 6,5 9 5 25 13 NNE 996,3 10
05.07.2020 18:00:00 12,3 5,3 18 10 25 13 ENE 997,0 -
05.07.2020 17:00:00 12,2 6,3 13 7 16 9 E 997,7 -
05.07.2020 16:00:00 11,8 5,9 7 4 9 5 SSE 998,4 -
05.07.2020 15:00:00 11,2 6,5 5 3 16 9 SSW 998,7 -
05.07.2020 14:00:00 11,2 7,2 15 8 18 10 W 998,9 -
05.07.2020 13:00:00 10,6 6,3 11 6 17 9 WSW 999,3 10
05.07.2020 12:00:00 10,2 7,4 13 7 22 12 WSW 999,4 10
05.07.2020 11:00:00 9,8 8,0 15 8 16 9 W 999,7 10
05.07.2020 10:00:00 10,1 7,5 8 4 10 5 SSE 999,7 10
05.07.2020 09:00:00 9,3 7,4 4 2 7 4 - 1000,0 10
05.07.2020 08:00:00 8,7 7,0 4 2 10 5 WSW 1000,2 -
05.07.2020 07:00:00 8,5 7,0 4 2 5 3 SSW 1000,5 -
05.07.2020 06:00:00 8,7 6,8 5 3 10 5 S 1000,9 -
05.07.2020 05:00:00 8,7 7,2 2 1 6 3 NE 1001,1 -
05.07.2020 04:00:00 8,0 6,7 5 3 6 3 N 1001,3 -
05.07.2020 03:00:00 8,1 6,7 0 0 3 2 N 1001,3 -
05.07.2020 02:00:00 7,7 6,2 2 1 8 4 SW 1001,4 -
05.07.2020 01:00:00 6,9 5,8 6 3 7 4 NNW 1001,7 -
05.07.2020 00:00:00 6,5 4,9 4 2 7 4 NNW 1001,8 -
04.07.2020 23:00:00 7,7 5,2 4 2 10 5 WNW 1001,7 -
04.07.2020 22:00:00 8,2 5,4 8 4 20 11 WNW 1001,8 -
04.07.2020 21:00:00 10,5 5,2 17 9 28 15 W 1001,9 -
04.07.2020 20:00:00 10,9 6,5 22 12 29 16 W 1002,1 -
04.07.2020 19:00:00 11,5 6,3 24 13 30 16 W 1002,2 -
04.07.2020 18:00:00 11,5 7,1 23 12 29 16 W 1002,1 -
04.07.2020 17:00:00 11,7 5,6 20 11 29 16 W 1002,2 -
04.07.2020 16:00:00 11,9 6,7 22 12 27 15 W 1002,3 -
04.07.2020 15:00:00 11,3 5,8 19 10 23 12 W 1002,4 -
04.07.2020 14:00:00 11,0 6,2 17 9 21 12 WSW 1002,5 -
04.07.2020 13:00:00 11,1 5,8 13 7 22 12 W 1002,5 -
04.07.2020 12:00:00 11,0 5,9 16 9 21 12 W 1002,5 10

tt = temperature
td = dewpoint
ff = wind speed
fx = gusts
dd = wind direction
ppp = reduced air pressure
vv = visibility

Next stations